Effective Sunday, March 17, 2024, the National Weather Service National Data Buoy Center will discontinue its Dial-A-Buoy Interactive Voice Response system. For more information, see Service Change Notice 24-06 (PDF).

Station 46092 - MBM1 Image indicating link to RSS feed of recent meteorological observations for station 46092


Conditions at 46092 as of
(9:01 am PST)
1701 GMT on 02/29/2024:
     

Click on the graph icon in the table below to see a time series plot of the last five days of that observation.

5-day plot - Wind Direction Wind Direction (WDIR):SSW ( 200 deg true )
5-day plot - Wind Speed Wind Speed (WSPD): 15.5 kts
5-day plot - Atmospheric Pressure Atmospheric Pressure (PRES):30.09 in
5-day plot - Pressure Tendency Pressure Tendency (PTDY):+0.00 in ( Steady )
5-day plot - Air Temperature Air Temperature (ATMP): 53.6 °F
5-day plot - Water Temperature Water Temperature (WTMP): 56.8 °F
5-day plot - Wind Chill Wind Chill (CHILL): 48.7 °F
5-day plot - Wind Speed at 10 Meters Wind Speed at 10 meters (WSPD10M): 17.5 kts
5-day plot - Wind Speed at 20 Meters Wind Speed at 20 meters (WSPD20M): 17.5 kts
5-day plot -  Wind Speed, Wind Gust and Atmospheric Pressure Combined plot of Wind Speed, Gust, and Air Pressure
Previous observations
TIME
(PST)
5-day plot - Wind Direction
WDIR
 
5-day plot - Wind Speed
WSPD
kts
5-day plot - Wind Gust
GST
kts
5-day plot - Wave Height
WVHT
ft
5-day plot - Dominant Wave Period
DPD
sec
5-day plot - Average Wave Period
APD
sec
5-day plot - Mean Wave Direction
MWD
 
5-day plot - Atmospheric Pressure
PRES
in
5-day plot - Pressure Tendency
PTDY
in
5-day plot - Air Temperature
ATMP
°F
5-day plot - Water Temperature
WTMP
°F
5-day plot - Dew Point
DEWP
°F
5-day plot - Salinity
SAL
psu
5-day plot - Visibility
VIS
nmi
5-day plot - Tide (above MLLW)
TIDE
ft
2024-02-29 08:01 am S 13.6-----30.09+0.00 54.9 56.8----
2024-02-29 07:01 amSSW 11.7-----30.08+0.00 54.3 56.8----
2024-02-29 06:01 amSSW 11.7-----30.09+0.03 53.2 56.7----
2024-02-29 05:01 am SW 11.7-----30.09+0.01 52.0 56.8----
2024-02-29 04:01 am SW 5.8-----30.09+0.01 51.6 56.7----
2024-02-29 03:01 amWSW 7.8-----30.06+0.00 53.1 56.7----
2024-02-29 02:01 amWSW 7.8-----30.07+0.00 53.6 56.8----
2024-02-29 01:01 am SW 5.8-----30.07+0.00 54.1 56.8----
2024-02-29 12:01 amWSW 7.8-----30.07+0.01 54.3 56.8----
2024-02-28 11:01 pm W 7.8-----30.07+0.02 54.5 56.8----
2024-02-28 10:01 pm W 7.8-----30.07+0.03 54.9 56.8----
2024-02-28 09:01 pm W 7.8-----30.06+0.02 55.2 56.8----
2024-02-28 08:01 pm W 9.7-----30.05+0.01 55.4 57.0----
2024-02-28 07:01 pm W 9.7-----30.04+0.00 55.4 57.0----
2024-02-28 06:01 pm W 9.7-----30.04-0.01 55.6 57.0----
2024-02-28 05:01 pm W 9.7-----30.04-0.01 56.1 57.2----
2024-02-28 04:01 pm W 9.7-----30.04-0.03 56.5 57.2----
2024-02-28 02:48 pm W 13.6-----30.05-0.04 56.3 57.2----
2024-02-28 02:01 pm W 11.7-----30.05-0.05 56.3 57.0----
2024-02-28 01:01 pm W 7.8-----30.07-0.03 55.8 57.2----
2024-02-28 12:01 pm NW 9.7-----30.09+0.00 55.4 56.8----
2024-02-28 11:01 am NE 5.8-----30.10+0.01 53.4 56.8----
2024-02-28 10:01 am NE 9.7-----30.10+0.01 52.3 56.7----